TimeEDT,TemperatureF,Dew PointF,Humidity,Sea Level PressureIn,VisibilityMPH,Wind Direction,Wind SpeedMPH,Gust SpeedMPH,PrecipitationIn,Events,Conditions,WindDirDegrees,DateUTC
12:55 AM,37.9,32.0,79,30.02,10.0,NNW,10.4,-,N/A,,Overcast,330,2013-10-28 04:55:00
1:55 AM,37.0,30.0,76,30.07,10.0,North,10.4,-,N/A,,Mostly Cloudy,360,2013-10-28 05:55:00
2:55 AM,34.0,27.0,75,30.13,10.0,North,10.4,17.3,N/A,,Partly Cloudy,10,2013-10-28 06:55:00
3:55 AM,32.0,21.9,66,30.19,10.0,North,12.7,-,N/A,,Clear,10,2013-10-28 07:55:00
4:55 AM,30.9,21.9,69,30.22,10.0,NNE,8.1,-,N/A,,Clear,20,2013-10-28 08:55:00
5:55 AM,28.9,19.9,69,30.28,10.0,North,10.4,-,N/A,,Clear,10,2013-10-28 09:55:00
6:55 AM,28.0,19.9,72,30.32,10.0,North,8.1,-,N/A,,Mostly Cloudy,10,2013-10-28 10:55:00
7:44 AM,28.0,19.0,69,30.32,10.0,North,9.2,-,N/A,,Scattered Clouds,10,2013-10-28 11:44:00
7:55 AM,28.0,18.0,66,30.34,10.0,NNE,10.4,-,N/A,,Partly Cloudy,30,2013-10-28 11:55:00
8:55 AM,28.0,17.1,63,30.38,10.0,Variable,5.8,-,N/A,,Clear,0,2013-10-28 12:55:00
9:55 AM,30.0,18.0,61,30.42,10.0,NNE,9.2,-,N/A,,Clear,20,2013-10-28 13:55:00
10:55 AM,32.0,19.0,59,30.43,10.0,North,8.1,-,N/A,,Clear,10,2013-10-28 14:55:00
11:55 AM,33.1,19.0,56,30.45,10.0,North,4.6,-,N/A,,Clear,360,2013-10-28 15:55:00
12:55 PM,34.0,19.0,54,30.45,10.0,Variable,5.8,-,N/A,,Clear,0,2013-10-28 16:55:00
1:55 PM,36.0,21.0,55,30.45,10.0,West,6.9,-,N/A,,Partly Cloudy,280,2013-10-28 17:55:00
2:55 PM,37.0,21.0,52,30.44,10.0,NW,5.8,-,N/A,,Clear,310,2013-10-28 18:55:00
3:55 PM,37.0,19.9,50,30.45,10.0,NNW,6.9,-,N/A,,Clear,340,2013-10-28 19:55:00
4:55 PM,35.1,21.0,57,30.45,10.0,West,10.4,16.1,N/A,,Clear,280,2013-10-28 20:55:00
5:55 PM,33.1,21.9,64,30.46,10.0,NW,8.1,-,N/A,,Clear,310,2013-10-28 21:55:00
6:55 PM,32.0,21.9,66,30.46,10.0,NNW,5.8,-,N/A,,Scattered Clouds,330,2013-10-28 22:55:00
7:08 PM,32.0,21.9,66,30.44,10.0,NNW,5.8,-,N/A,,Mostly Cloudy,330,2013-10-28 23:08:00
7:43 PM,30.9,21.9,69,30.45,10.0,NNW,4.6,-,N/A,,Scattered Clouds,340,2013-10-28 23:43:00
7:55 PM,30.9,21.0,67,30.48,10.0,NNW,3.5,-,N/A,,Partly Cloudy,340,2013-10-28 23:55:00
8:55 PM,30.9,21.9,69,30.47,10.0,NNE,5.8,-,N/A,,Mostly Cloudy,20,2013-10-29 00:55:00
9:55 PM,30.0,21.9,72,30.48,10.0,North,5.8,-,N/A,,Overcast,10,2013-10-29 01:55:00
10:31 PM,30.0,21.0,69,30.46,10.0,North,5.8,-,N/A,,Scattered Clouds,350,2013-10-29 02:31:00
10:55 PM,28.9,21.0,72,30.48,10.0,NNE,4.6,-,N/A,,Partly Cloudy,20,2013-10-29 02:55:00
11:09 PM,28.9,21.0,72,30.45,10.0,North,3.5,-,N/A,,Mostly Cloudy,10,2013-10-29 03:09:00
11:55 PM,28.9,21.0,72,30.49,10.0,NNE,3.5,-,N/A,,Mostly Cloudy,30,2013-10-29 03:55:00